P/2005 JY126 ( Catalina )

Japanese version
Home page
Total 6,336 html files since Dec. 4, 1995
Updated on February 11, 2007

---------------------------------------------------------------------

* Profile

Discovery Date May 12, 2005
Magnitude 17.4 mag
Discoverer Catalina Sky Survey

* Orbital Elements

Epoch 2006 Mar. 6.0 TT = JDT 2453800.5
T 2006 Feb. 21.3281 TT                                  MPC
q   2.125986             (2000.0)            P               Q
n   0.1355974      Peri.  117.5883      +0.7991886      +0.5787513
a   3.752337       Node   207.9860      -0.5963070      +0.7973526
e   0.433423       Incl.   20.2360      +0.0756013      +0.1711017
P   7.27
From 137 observations 2005 Apr. 17-2006 Sept. 4, mean residual 0".6.

* Finding Charts

* Magnitudes Graph

        m1 = 11.8 + 5 log d + 10.0 log r(t + 70)

---------------------------------------------------------------------

The orbital elements are published on M.P.E.C. 2006-R29.
The charts are made with StellaNavigator Ver.2.0 for Windows (AstroArts / ASCII).
The magnitudes graphs are made with Comet for Windows.

---------------------------------------------------------------------

Copyright(C) 1995-2008 Seiichi Yoshida (comet@aerith.net). All rights reserved.